LVLHI SADF-SADL

Flight info

Callsign LVLHI
Flight time N/A
Altitude 5000
Route PAL DCT EZE DCT PTA
Aircraft PA24/L-SDGRY/S

Departure

Time 2026-05-06 03:45
Airport San Fernando Airport (SADF)

Arrival

Time N/A
Airport La Plata Airport (SADL)
Time Latitude Longitude Altitude Speed Heading
2026-05-06 03:20 -34.45229 -58.57981 13 ft 0 kts 59°
2026-05-06 03:27 -34.45229 -58.57980 13 ft 1 kts 59°
2026-05-06 03:27 -34.45230 -58.57978 13 ft 1 kts 174°
2026-05-06 03:27 -34.45234 -58.57989 13 ft 0 kts 246°
2026-05-06 03:34 -34.45229 -58.57981 24 ft 2 kts 59°
2026-05-06 03:37 -34.45229 -58.57980 24 ft 1 kts 70°
2026-05-06 03:38 -34.45253 -58.58036 13 ft 3 kts 38°
2026-05-06 03:38 -34.45316 -58.57981 19 ft 15 kts 174°
2026-05-06 03:39 -34.45370 -58.58077 13 ft 17 kts 249°
2026-05-06 03:39 -34.45426 -58.58201 13 ft 16 kts 245°
2026-05-06 03:39 -34.45475 -58.58315 13 ft 14 kts 233°
2026-05-06 03:39 -34.45515 -58.58412 13 ft 12 kts 262°
2026-05-06 03:40 -34.45540 -58.58487 13 ft 7 kts 231°
2026-05-06 03:40 -34.45566 -58.58535 13 ft 7 kts 237°
2026-05-06 03:40 -34.45593 -58.58590 13 ft 7 kts 240°
2026-05-06 03:40 -34.45617 -58.58642 13 ft 8 kts 246°
2026-05-06 03:41 -34.45679 -58.58789 13 ft 32 kts 243°
2026-05-06 03:41 -34.45797 -58.59075 14 ft 38 kts 238°
2026-05-06 03:41 -34.45935 -58.59389 14 ft 46 kts 244°
2026-05-06 03:41 -34.46020 -58.59664 15 ft 14 kts 351°
2026-05-06 03:42 -34.45999 -58.59673 15 ft 0 kts 338°
2026-05-06 03:43 -34.45971 -58.59683 15 ft 19 kts 352°
2026-05-06 03:43 -34.45917 -58.59629 15 ft 18 kts 44°
2026-05-06 03:43 -34.45666 -58.59341 13 ft 76 kts 42°
2026-05-06 03:43 -34.45208 -58.58798 128 ft 99 kts 50°
2026-05-06 03:44 -34.44737 -58.58187 392 ft 100 kts 50°
2026-05-06 03:44 -34.44554 -58.57947 499 ft 101 kts 50°
2026-05-06 03:45 -34.44347 -58.57679 556 ft 107 kts 51°
2026-05-06 03:45 -34.43868 -58.56958 722 ft 107 kts 57°
2026-05-06 03:45 -34.43754 -58.56742 812 ft 104 kts 60°
2026-05-06 03:47 -34.43662 -58.56549 894 ft 101 kts 62°
2026-05-06 03:48 -34.43340 -58.55790 1098 ft 103 kts 63°
2026-05-06 03:48 -34.42703 -58.55318 1162 ft 125 kts 358°
2026-05-06 03:48 -34.42050 -58.56059 1316 ft 139 kts 290°
2026-05-06 03:48 -34.42150 -58.57169 1571 ft 141 kts 245°
2026-05-06 03:49 -34.42813 -58.58091 1670 ft 150 kts 216°
2026-05-06 03:49 -34.43747 -58.58664 1802 ft 150 kts 196°
2026-05-06 03:49 -34.44759 -58.59086 1865 ft 155 kts 195°
2026-05-06 03:49 -34.45771 -58.59459 2020 ft 152 kts 187°
2026-05-06 03:50 -34.46857 -58.59668 1957 ft 160 kts 188°
2026-05-06 03:50 -34.47932 -58.59743 2117 ft 151 kts 175°
2026-05-06 03:50 -34.49009 -58.59720 2123 ft 158 kts 176°
2026-05-06 03:50 -34.50095 -58.59781 2243 ft 155 kts 185°
2026-05-06 03:51 -34.51165 -58.59989 2254 ft 159 kts 186°
2026-05-06 03:51 -34.52251 -58.60187 2301 ft 157 kts 186°
2026-05-06 03:51 -34.53337 -58.60394 2280 ft 161 kts 186°
2026-05-06 03:51 -34.54449 -58.60597 2296 ft 161 kts 185°
2026-05-06 03:52 -34.55570 -58.60746 2272 ft 162 kts 182°
2026-05-06 03:52 -34.56661 -58.60814 2321 ft 144 kts 181°
2026-05-06 03:52 -34.57581 -58.60949 2344 ft 129 kts 189°
2026-05-06 03:52 -34.58434 -58.61247 2270 ft 126 kts 195°
2026-05-06 03:53 -34.59254 -58.61574 2214 ft 123 kts 195°
2026-05-06 03:53 -34.60044 -58.61909 2164 ft 116 kts 201°
2026-05-06 03:53 -34.60750 -58.62247 2035 ft 101 kts 192°
2026-05-06 03:53 -34.61396 -58.62491 1866 ft 95 kts 191°
2026-05-06 03:54 -34.62028 -58.62701 1659 ft 96 kts 189°
2026-05-06 03:54 -34.62659 -58.62915 1497 ft 91 kts 190°
2026-05-06 03:54 -34.63245 -58.63091 1369 ft 84 kts 190°
2026-05-06 03:54 -34.63809 -58.63262 1251 ft 88 kts 188°
2026-05-06 03:55 -34.64429 -58.63443 1145 ft 91 kts 194°
2026-05-06 03:55 -34.65028 -58.63738 943 ft 91 kts 186°
2026-05-06 03:55 -34.65643 -58.63822 775 ft 87 kts 179°
2026-05-06 03:55 -34.66247 -58.63943 556 ft 89 kts 181°
2026-05-06 03:56 -34.66896 -58.64074 178 ft 100 kts 187°
2026-05-06 03:56 -34.67518 -58.64255 105 ft 80 kts 188°
2026-05-06 03:56 -34.68002 -58.64395 101 ft 63 kts 188°
2026-05-06 03:56 -34.68386 -58.64487 97 ft 61 kts 188°
2026-05-06 03:57 -34.68885 -58.64668 213 ft 83 kts 193°
2026-05-06 03:57 -34.69433 -58.64848 641 ft 49 kts 174°
2026-05-06 03:57 -34.69290 -58.64650 379 ft 81 kts 346°
2026-05-06 03:57 -34.68756 -58.64604 183 ft 71 kts 17°
2026-05-06 03:58 -34.68302 -58.64478 111 ft 58 kts 17°
2026-05-06 03:58 -34.67934 -58.64367 97 ft 50 kts 18°